Location: Unspecified
(46.0725°N, 13.7344°E)
Time: 11:23:51
(UTC+02:00)

Cosmos 2058 - Pass Details

Date: 22 June 2024
Orbit: 545 x 564 km, 82.5° (Epoch: 16 July)

Event Time Altitude Azimuth Distance (km) Brightness Sun altitude
Exits shadow 02:57:09 17° 154° (SSE) 1,456 4.6 -16.1°
Maximum altitude 02:59:53 39° 92° (E) 857 4.0 -15.9°
Drops below altitude 10° 03:03:42 10° 24° (NNE) 1,865 6.9 -15.6°
Sets 03:05:59 0° 17° (NNE) 2,769 8.1 -15.5°
